Weather Service Report


188 
ASUS46 KLOX 261613
RWRCA 

SOUTHERN CALIFORNIA WEATHER ROUNDUP
NATIONAL WEATHER SERVICE OXNARD CALIFORNIA
900 AM PDT THU MAY 26 2016

NOTE: "FAIR" INDICATES FEW OR NO CLOUDS BELOW 12,000 FEET WITH NO 
SIGNIFICANT WEATHER AND/OR OBSTRUCTIONS TO VISIBILITY.

  -  STATIONS PRECEEDED BY AN ASTERISK (*) ARE NOT NWS OR FAA 
     STATIONS AND ARE NOT SUBJECT TO NWS AND FAA QUALITY CONTROL.

CAZ041-042-087-261700-
LA AND ORANGE COUNTY COASTAL AREAS

  
CITY           SKY/WX    TMP DP  RH WIND       PRES   REMARKS
L.A. DOWNTOWN  MOSUNNY   64  51  62 CALM      30.07S                  
L.A. AIRPORT   PTSUNNY   63  51  65 SE6       30.07F                  
LONG BEACH     CLOUDY    63  52  67 CALM      30.07F                  

CITY           SKY/WX    TMP DP  RH WIND       PRES   REMARKS
AVALON           N/A     61 N/A N/A N1          N/A                   
FULLERTON      PTSUNNY   64  50  60 CALM      30.07S                  
*GETTY CENTER    N/A     59  50  72 E3          N/A                   
HAWTHORNE      PTSUNNY   63  51  65 E5        30.08S                  
*LOS ALAMITOS  PTSUNNY   65  52  64 S5        30.07S                  
*REDONDO BEACH   N/A     65  54  65 SE1       30.07S                  
SANTA ANA      PTSUNNY   63  51  65 CALM      30.07S                  
STA MONICA APT MOSUNNY   62  51  67 CALM      30.08S                  
*STA MON PIER    N/A     62  54  73 SW1       30.01S                  
TORRANCE       PTSUNNY   64  55  72 CALM      30.08F                  
*UCLA            N/A     63  48  59 S2        30.05S                  

$$

CAZ547-548-048-261700-
LA COUNTY VALLEYS AND INLAND EMPIRE

  
CITY           SKY/WX    TMP DP  RH WIND       PRES   REMARKS
BURBANK        MOSUNNY   61  50  67 SE8       30.07S                  
VAN NUYS       MOSUNNY   61  49  64 CALM      30.07S                  

CITY           SKY/WX    TMP DP  RH WIND       PRES   REMARKS
CORONA AIRPORT SUNNY     63  50  62 CALM      30.08F                  
*CHATSWORTH      N/A     60  51  71 SW1       30.09S                  
CHINO          MOSUNNY   63  48  58 CALM      30.09S                  
MARCH AFB      SUNNY     57  49  72 VRB1      30.07S                  
*NORTHRIDGE      N/A     61  48  63 SE3         N/A                   
ONTARIO        MOSUNNY   60  47  61 W3        30.07F                  
*PASADENA        N/A     61  52  72 E2          N/A                   
POMONA         MOSUNNY   59  46  63 CALM      30.10F                  
RIVERSIDE      PTSUNNY   62  47  57 E5        30.07F                  
SAN BERNARDINO MOSUNNY   63  46  55 SW3       30.08F                  
*SAN GABRIEL     N/A     62  51  68 S1        30.15S                  
*WHITEMAN AP   NOT AVBL                                               
*WHITTIER HILL   N/A     64  53  66 SE5         N/A                   
*WOODLAND HILL   N/A     61  50  67 N5          N/A                   

$$

CAZ054-055-261700-
LA AND SAN BERNARDINO COUNTY MOUNTAINS

  
CITY           SKY/WX    TMP DP  RH WIND       PRES   REMARKS
*BIG BEAR AIRP PTSUNNY   48  34  57 CALM      30.14S                  
*CHILAO          N/A     57  40  53 N6          N/A                   
SANDBERG       SUNNY     56  45  66 N9G26     30.12S                  

$$

CAZ028-029-059-060-099-261700-
ANTELOPE VALLEY AND SURROUNDING AREAS

  
CITY           SKY/WX    TMP DP  RH WIND       PRES   REMARKS
LANCASTER      SUNNY     68  42  38 W12       30.04S                  
PALMDALE       SUNNY     65  42  43 W10       30.05S                  

CITY           SKY/WX    TMP DP  RH WIND       PRES   REMARKS
29 PALMS       MOSUNNY   69  41  36 NW21      30.05S                  
BARSTOW/DAGGET SUNNY     69  43  38 W15       30.01S                  
BISHOP         PTSUNNY   64  40  41 VRB7      30.09S                  
CHINA LAKE     SUNNY     72  38  29 N8        30.00S                  
EDWARDS AFB    MOSUNNY   67  43  42 SW7       30.02S                  
MOJAVE         SUNNY     66  45  45 W17G24    30.04R                  
NEEDLES        SUNNY     75  40  28 VRB3      29.92S                  
VICTORVILLE    SUNNY     64  41  42 W8        30.05F                  

$$

CAZ039-040-261700-
VENTURA AND SANTA BARBARA COUNTY COAST

  
CITY           SKY/WX    TMP DP  RH WIND       PRES   REMARKS
CAMARILLO      SUNNY     63  51  65 SW5       30.07F                  
NWS OXNARD       N/A     64  52  65 CALM      30.07S                  
OXNARD AIRPORT PTSUNNY   62  53  72 CALM      30.08S                  
*POINT MUGU    MOSUNNY   63  54  72 CALM      30.08F                  
SBA APT/GOLETA MOSUNNY   62  54  74 S8        30.08S                  
*SANTA BARBARA   N/A     65  51  62 CALM      30.15F                  
*VENTURA         N/A     63  54  73 E3        30.06F                  

$$

CAZ044-045-261700-
VENTURA COUNTY VALLEYS

  
CITY           SKY/WX    TMP DP  RH WIND       PRES   REMARKS
*SIMI VALLEY     N/A     60  52  74 CALM      30.04F                  
*WESTLAKE VILL   N/A     58  51  77 CALM      30.06F                  
*OJAI            N/A     47  44  91 CALM      30.03S                  
*FILLMORE        N/A     61  56  83 CALM      29.97F                  

$$

CAZ053-261700-
VENTURA COUNTY MOUNTAINS

  
CITY           SKY/WX    TMP DP  RH WIND       PRES   REMARKS
*LOCKWOOD VLY    N/A     54  39  58 MISG        N/A                   
*ROSE VALLEY     N/A     64  46  52 MISG        N/A                   

$$

CAZ034-035-036-261700-
CENTRAL COAST AND SANTA YNEZ VALLEY

  
CITY           SKY/WX    TMP DP  RH WIND       PRES   REMARKS
SAN LUIS OBISP MOSUNNY   61  50  67 W5        30.11F                  
SANTA MARIA    CLOUDY    57  51  80 NW10      30.12F                  

CITY           SKY/WX    TMP DP  RH WIND       PRES   REMARKS
*CAL POLY SLO    N/A     59  52  77 W5          N/A                   
*LOMPOC        CLOUDY    59  50  72 NW10      30.12F                  
*PISMO BEACH     N/A     58  53  83 SW3       30.12F                  
*SANTA YNEZ    CLOUDY    55  48  76 CALM      30.12S                  

$$

CAZ037-038-051-261700-
SAN LUIS OBISPO COUNTY INTERIOR AND CUYAMA VALLEY

  
CITY           SKY/WX    TMP DP  RH WIND       PRES   REMARKS
*CUYAMA          N/A     60  48  62 E1        30.05F                  
PASO ROBLES    CLOUDY    56  47  71 NW7       30.12S                  

$$

CAZ032-033-061-261700-
SOUTHERN DESERTS

  
CITY           SKY/WX    TMP DP  RH WIND       PRES   REMARKS
BLYTHE         SUNNY     73  43  33 S3        29.93S                  
IMPERIAL       SUNNY     74  43  32 W7        29.93F                  
PALM SPRINGS   SUNNY     72  41  32 W10       29.95F                  
THERMAL        SUNNY     74  42  31 NW12      29.93R                  

$$

ELSEWHERE ACROSS THE WESTERN UNITED STATES AND MEXICO

  
CITY           SKY/WX    TMP DP  RH WIND       PRES   REMARKS
DEATH VALLEY,    N/A     82  42  24 NW7         N/A                   
DENVER, CO     PTSUNNY   60  41  49 VRB5      29.97F                  
GRAND CANYON,  MOSUNNY   55  27  34 VRB5      30.06S                  
HONOLULU, HI   MOCLDY    73  70  88 N3        30.08                   
KAHULUI, MAUI  PTCLDY    66  64  94 SE6       30.08R                  
LAKE TAHOE, CA NOT AVBL                                               
LAS VEGAS, NV  MOSUNNY   70  35  27 CALM      29.91S                  
MAMMOTH LAKES, PTSUNNY   48  37  64 CALM      30.18S                  
MEXICO CITY, M MOSUNNY   72  52  49 E8        30.39F                  
PHOENIX, AZ    MOSUNNY   73  38  27 E6        29.94R                  
PORTLAND, OR   CLOUDY    56  42  59 W3        30.24S                  
RENO, NV       MOSUNNY   59  40  49 CALM      30.13S                  
SALT LAKE CITY MOSUNNY   61  45  55 W5        30.01F                  
SAN DIEGO, CA  PTSUNNY   63  51  65 VRB3      30.10S                  
SAN FRANCISCO, MOSUNNY   59  47  64 CALM      30.10R                  
SAN JOSE, CA   MOSUNNY   62  50  64 SE9       30.09F                  
SEATTLE, WA    CLOUDY    53  44  71 S10       30.20S                  
TIJUANA, MEX   CLOUDY    63  46  55 E5        30.11S                  

$$
  
STATION/POSITION TIME  TEMP    WIND        PRES    VSBY  WAVE
                       AIR SEA DIR/SP/G                  HT/PER
                 (UTC) (F)     (DEG/KT/KT) (MB)    (MI)  (FT/S)
POINT ARGUELLO B NOT AVBL
WEST SANTA BARBA 1550   54 53  330/ 16/ 19 1019.2R         6/ 8
POINT CONCEPTION NOT AVBL
EAST SANTA BARBA 1500   58 58   40/  6/  8 1019.0R
SANTA MONICA BAY 1550   60 63   30/  2/  4 1018.8F         3/ 6

Return to Home page


Western Regional Climate Center, wrcc@dri.edu